Temp
-11 -11 -11 -11 -10 -11 -11 -11 -11 -11 -10 -10 -9 -10 -10 -10 -10 -9 -10 -10 -10 -10 -10 -10 -10 -10 -10 -10 -10 -10 -10 -10 -10 -10 -11 -11 -10 -10 -10 -10 -10 -10 -10 -10 -10
-11 -11 -11 -11 -11 -11 -11 -11 -12 -11 -11 -10 -10 -10 -10 -10 -10 -9 -10 -11 -10 -10 -10 -10 -9 -10 -10 -11 -11 -10 -10 -10 -10 -10 -11 -11 -10 -10 -10 -10 -10 -11 -11 -10 -10
-11 -11 -11 -12 -11 -11 -11 -11 -12 -11 -11 -11 -10 -10 -10 -10 -10 -9 -10 -10 -10 -10 -10 -10 -10 -10 -10 -11 -11 -10 -10 -10 -11 -10 -10 -9 -9 -10 -10 -10 -10 -11 -10 -10 -10
-11 -11 -11 -11 -11 -11 -11 -11 -12 -12 -11 -11 -11 -11 -10 -10 -10 -10 -10 -10 -10 -10 -10 -10 -10 -10 -10 -10 -10 -9 -10 -10 -11 -10 -10 -10 -10 -9 -9 -10 -10 -9 -9 -9 -9
-11 -11 -11 -11 -11 -11 -11 -12 -12 -12 -11 -11 -11 -11 -11 -11 -10 -10 -10 -10 -10 -10 -11 -11 -10 -10 -10 -11 -11 -10 -11 -10 -10 -10 -10 -10 -10 -10 -10 -11 -11 -10 -9 -9 -9
-12 -12 -11 -11 -11 -12 -12 -12 -12 -12 -12 -12 -11 -11 -11 -11 -10 -10 -11 -11 -10 -10 -11 -11 -11 -10 -10 -11 -11 -11 -10 -10 -10 -10 -11 -10 -10 -10 -10 -11 -11 -10 -10 -9 -9
-12 -13 -13 -12 -12 -12 -12 -12 -12 -12 -12 -12 -12 -11 -11 -12 -10 -11 -10 -11 -11 -11 -11 -10 -11 -11 -10 -11 -10 -10 -10 -10 -10 -10 -10 -10 -10 -10 -10 -11 -10 -10 -10 -10 -10
-13 -13 -13 -13 -13 -13 -12 -12 -13 -13 -12 -12 -12 -12 -12 -12 -11 -11 -11 -11 -11 -11 -11 -11 -11 -11 -11 -10 -10 -10 -10 -10 -11 -10 -10 -10 -10 -10 -11 -10 -10 -10 -10 -10 -10
-13 -13 -13 -13 -13 -13 -12 -12 -13 -13 -12 -12 -12 -12 -12 -12 -12 -11 -12 -11 -11 -11 -11 -11 -11 -11 -11 -11 -11 -11 -11 -11 -10 -10 -10 -10 -9 -10 -10 -10 -10 -10 -10 -11 -10
-13 -12 -14 -14 -14 -14 -13 -13 -13 -13 -12 -13 -13 -13 -13 -12 -12 -12 -12 -12 -12 -12 -12 -12 -12 -11 -11 -12 -11 -10 -10 -11 -11 -11 -11 -10 -10 -11 -11 -11 -11 -11 -11 -11 -11
-12 -12 -13 -13 -14 -13 -13 -13 -12 -13 -13 -13 -13 -13 -13 -13 -12 -12 -13 -13 -12 -12 -12 -12 -11 -11 -12 -12 -12 -12 -11 -11 -11 -11 -11 -11 -11 -11 -11 -11 -11 -11 -11 -11 -11
-12 -12 -12 -12 -12 -12 -13 -12 -13 -13 -13 -13 -13 -12 -13 -13 -12 -12 -12 -12 -13 -13 -12 -11 -11 -13 -12 -12 -12 -12 -12 -11 -11 -12 -11 -11 -11 -11 -11 -12 -12 -11 -10 -10 -10
-12 -13 -12 -12 -12 -12 -12 -12 -13 -14 -13 -12 -12 -12 -13 -13 -11 -12 -12 -12 -12 -12 -12 -12 -12 -13 -12 -12 -12 -12 -12 -12 -11 -11 -11 -11 -11 -11 -11 -12 -11 -10 -10 -10 -10
-12 -13 -13 -12 -12 -12 -12 -12 -13 -16 -13 -10 -12 -11 -12 -12 -10 -12 -13 -12 -12 -11 -13 -12 -12 -12 -13 -12 -13 -11 -12 -12 -12 -12 -11 -11 -10 -10 -11 -11 -12 -12 -11 -11 -11
-13 -12 -13 -13 -12 -12 -13 -14 -15 -16 -15 -12 -10 -11 -11 -12 -12 -12 -13 -12 -11 -12 -13 -11 -12 -13 -12 -12 -13 -12 -12 -12 -12 -12 -11 -11 -11 -10 -11 -11 -12 -13 -12 -12 -12
-13 -13 -13 -13 -12 -12 -13 -13 -14 -16 -12 -10 -10 -11 -12 -12 -13 -12 -13 -13 -13 -13 -13 -12 -13 -12 -12 -12 -13 -12 -12 -12 -12 -12 -11 -11 -12 -11 -11 -12 -12 -13 -13 -13 -13
-14 -14 -13 -13 -12 -13 -12 -13 -14 -13 -10 -11 -11 -11 -12 -13 -13 -13 -13 -13 -14 -13 -13 -13 -12 -13 -13 -12 -12 -12 -12 -12 -12 -12 -11 -12 -13 -11 -11 -12 -13 -13 -13 -13 -14
-14 -14 -14 -13 -13 -13 -13 -13 -13 -10 -11 -11 -12 -12 -11 -12 -13 -13 -13 -13 -13 -13 -13 -13 -13 -13 -13 -13 -13 -14 -14 -13 -13 -13 -13 -13 -12 -12 -13 -13 -13 -13 -14 -14 -14
-16 -15 -15 -13 -14 -14 -13 -14 -12 -11 -11 -12 -13 -12 -12 -13 -14 -14 -13 -13 -13 -13 -13 -13 -13 -13 -13 -13 -14 -13 -14 -15 -15 -14 -15 -14 -14 -14 -14 -14 -14 -14 -14 -14 -14
-15 -16 -15 -15 -14 -14 -14 -14 -13 -13 -13 -13 -13 -13 -13 -14 -14 -14 -14 -13 -14 -13 -13 -14 -14 -14 -14 -14 -14 -15 -15 -16 -16 -16 -16 -15 -15 -15 -15 -15 -15 -15 -16 -16 -16
-17 -16 -15 -15 -14 -15 -15 -15 -14 -14 -14 -13 -14 -15 -14 -15 -15 -15 -15 -15 -14 -14 -14 -14 -15 -15 -15 -15 -16 -16 -17 -17 -17 -17 -17 -17 -14 -14 -15 -15 -16 -16 -16 -16 -16
-17 -16 -15 -16 -14 -15 -15 -15 -15 -15 -15 -15 -16 -16 -15 -16 -16 -16 -15 -16 -14 -14 -14 -14 -15 -17 -17 -17 -17 -17 -17 -18 -18 -17 -18 -18 -14 -15 -16 -17 -17 -17 -17 -16 -16
-17 -16 -15 -15 -15 -15 -15 -15 -15 -15 -16 -16 -16 -16 -16 -16 -16 -16 -16 -15 -14 -14 -14 -14 -14 -17 -17 -17 -17 -18 -18 -18 -19 -19 -19 -19 -14 -16 -17 -18 -18 -18 -17 -17 -17
-15 -15 -16 -15 -15 -15 -15 -15 -16 -15 -16 -16 -17 -16 -17 -17 -17 -17 -17 -16 -16 -15 -14 -14 -16 -17 -18 -18 -18 -18 -18 -18 -19 -19 -19 -17 -19 -16 -18 -18 -18 -18 -18 -18 -18
-17 -16 -15 -16 -16 -15 -15 -16 -16 -16 -16 -15 -16 -17 -17 -17 -17 -17 -16 -16 -15 -15 -16 -16 -17 -18 -18 -18 -18 -19 -19 -19 -19 -20 -20 -18 -20 -19 -18 -18 -18 -18 -19 -19 -19
-16 -16 -16 -17 -16 -16 -15 -15 -15 -16 -16 -16 -17 -17 -17 -17 -17 -16 -17 -17 -17 -17 -18 -18 -18 -19 -19 -19 -19 -19 -19 -19 -19 -20 -21 -21 -19 -21 -19 -19 -19 -19 -19 -19 -19
-17 -16 -15 -15 -16 -16 -16 -15 -16 -17 -17 -18 -18 -17 -17 -17 -17 -17 -17 -18 -18 -19 -19 -19 -19 -19 -20 -20 -20 -19 -19 -19 -20 -20 -21 -20 -20 -20 -20 -21 -21 -21 -22 -22 -23
Height
5805 5807 5807 5806 5805 5805 5804 5804 5803 5802 5802 5800 5798 5799 5799 5800 5797 5799 5798 5799 5799 5800 5801 5802 5803 5804 5803 5802 5805 5806 5810 5815 5816 5816 5814 5814 5816 5817 5818 5821 5818 5818 5819 5820 5821
5796 5798 5799 5799 5799 5799 5799 5799 5798 5797 5796 5795 5794 5793 5793 5795 5792 5794 5795 5795 5796 5796 5797 5797 5799 5799 5799 5799 5801 5803 5808 5810 5811 5811 5811 5810 5815 5817 5819 5817 5813 5812 5815 5814 5816
5787 5789 5790 5792 5792 5792 5792 5792 5791 5790 5790 5789 5789 5790 5789 5790 5789 5790 5790 5791 5791 5793 5793 5794 5795 5795 5796 5796 5797 5800 5804 5805 5807 5808 5808 5807 5811 5813 5814 5813 5807 5806 5809 5812 5813
5777 5781 5782 5783 5783 5784 5784 5785 5785 5784 5784 5783 5784 5784 5785 5785 5785 5785 5785 5788 5788 5788 5789 5791 5791 5791 5793 5793 5794 5797 5799 5800 5802 5803 5804 5804 5808 5808 5809 5809 5806 5804 5806 5808 5808
5766 5770 5773 5774 5774 5776 5776 5777 5777 5776 5776 5777 5777 5779 5780 5782 5777 5781 5781 5782 5783 5785 5784 5786 5787 5788 5789 5790 5791 5793 5794 5795 5796 5797 5799 5800 5802 5802 5803 5803 5801 5801 5801 5803 5804
5755 5759 5762 5764 5764 5766 5768 5768 5767 5767 5769 5769 5769 5772 5775 5778 5770 5775 5776 5776 5779 5780 5781 5781 5781 5785 5786 5787 5786 5788 5792 5793 5794 5794 5791 5791 5794 5795 5798 5795 5792 5791 5793 5797 5799
5742 5746 5751 5753 5755 5755 5758 5759 5758 5758 5760 5760 5760 5764 5769 5769 5765 5770 5770 5772 5772 5774 5775 5777 5778 5779 5781 5781 5781 5784 5786 5789 5789 5788 5785 5783 5788 5790 5791 5787 5786 5786 5788 5789 5792
5728 5733 5737 5741 5743 5745 5746 5748 5748 5748 5750 5751 5752 5755 5762 5760 5759 5760 5765 5765 5765 5769 5770 5769 5772 5774 5776 5775 5776 5778 5780 5783 5783 5779 5780 5777 5782 5785 5781 5779 5782 5784 5783 5783 5784
5715 5719 5724 5728 5731 5733 5733 5736 5737 5737 5739 5741 5742 5745 5754 5754 5752 5753 5756 5758 5760 5762 5763 5762 5763 5767 5770 5770 5771 5771 5772 5774 5778 5774 5774 5772 5773 5781 5777 5777 5779 5779 5780 5780 5779
5700 5703 5709 5715 5718 5720 5720 5722 5724 5726 5727 5731 5732 5736 5742 5745 5746 5746 5747 5750 5752 5754 5755 5756 5757 5759 5762 5763 5765 5760 5760 5766 5773 5772 5763 5765 5767 5770 5774 5772 5772 5773 5774 5775 5773
5685 5690 5696 5700 5704 5704 5707 5709 5710 5714 5718 5724 5720 5724 5727 5733 5738 5736 5739 5741 5742 5744 5748 5748 5747 5756 5753 5753 5753 5753 5754 5756 5762 5766 5756 5760 5758 5760 5762 5765 5766 5766 5764 5763 5764
5672 5678 5682 5685 5687 5690 5692 5693 5699 5702 5705 5709 5709 5709 5718 5720 5723 5729 5731 5732 5733 5735 5736 5737 5739 5749 5744 5741 5743 5745 5746 5748 5752 5755 5751 5753 5750 5753 5756 5755 5754 5750 5750 5753 5753
5660 5665 5669 5670 5673 5677 5680 5683 5686 5690 5688 5696 5698 5700 5709 5709 5709 5722 5715 5723 5725 5726 5726 5726 5730 5735 5735 5736 5734 5735 5734 5738 5738 5742 5743 5741 5741 5745 5744 5744 5742 5743 5742 5741 5741
5646 5651 5653 5657 5661 5666 5670 5673 5674 5676 5674 5676 5691 5691 5693 5694 5694 5710 5707 5710 5713 5715 5720 5715 5720 5725 5726 5724 5726 5724 5729 5726 5726 5726 5729 5732 5728 5730 5733 5731 5732 5732 5732 5731 5731
5630 5635 5638 5645 5649 5655 5661 5660 5662 5662 5663 5667 5667 5677 5680 5687 5688 5693 5696 5695 5701 5708 5708 5707 5709 5712 5712 5716 5714 5715 5716 5716 5714 5714 5714 5716 5718 5722 5719 5716 5718 5718 5720 5719 5718
5616 5620 5627 5628 5634 5642 5645 5643 5644 5646 5646 5655 5655 5659 5669 5675 5680 5681 5684 5686 5689 5689 5692 5696 5697 5698 5703 5704 5702 5701 5701 5703 5704 5703 5703 5704 5703 5708 5704 5701 5699 5700 5702 5705 5707
5600 5606 5611 5614 5621 5627 5629 5626 5622 5626 5639 5647 5647 5647 5651 5659 5665 5670 5672 5677 5679 5679 5680 5685 5686 5687 5687 5688 5689 5689 5690 5689 5689 5688 5690 5691 5688 5692 5689 5687 5686 5685 5685 5686 5690
5585 5591 5596 5597 5601 5609 5613 5606 5600 5623 5628 5630 5635 5640 5641 5642 5650 5655 5660 5662 5666 5668 5668 5670 5673 5676 5678 5676 5678 5675 5674 5674 5673 5674 5675 5675 5672 5676 5675 5673 5671 5669 5669 5671 5672
5570 5573 5578 5578 5587 5591 5594 5580 5596 5607 5614 5620 5623 5626 5632 5633 5635 5640 5645 5649 5651 5652 5654 5655 5658 5658 5661 5662 5662 5660 5658 5659 5656 5656 5657 5659 5659 5659 5657 5657 5656 5655 5655 5655 5655
5548 5554 5559 5570 5571 5574 5573 5569 5585 5593 5598 5603 5605 5612 5617 5623 5621 5623 5628 5633 5636 5639 5640 5641 5641 5641 5642 5643 5643 5643 5645 5643 5641 5641 5639 5642 5646 5644 5646 5642 5641 5642 5642 5642 5640
5526 5533 5546 5555 5557 5547 5551 5563 5574 5580 5582 5588 5593 5597 5604 5605 5609 5610 5613 5616 5619 5623 5625 5627 5630 5629 5628 5629 5629 5628 5627 5626 5628 5628 5626 5628 5635 5637 5629 5629 5629 5630 5630 5626 5623
5503 5517 5529 5537 5534 5528 5541 5557 5565 5567 5570 5575 5581 5584 5588 5592 5596 5598 5602 5603 5605 5607 5608 5610 5612 5613 5614 5614 5613 5612 5613 5613 5612 5613 5612 5611 5623 5626 5615 5615 5614 5613 5610 5606 5604
5486 5499 5508 5515 5509 5519 5533 5542 5552 5558 5561 5565 5571 5574 5578 5581 5585 5588 5591 5594 5595 5596 5596 5598 5598 5598 5598 5600 5599 5600 5601 5600 5598 5597 5594 5594 5610 5615 5603 5598 5595 5592 5593 5590 5586
5469 5474 5484 5489 5501 5512 5518 5529 5539 5548 5551 5554 5558 5562 5565 5569 5573 5574 5577 5580 5582 5584 5586 5586 5586 5586 5588 5589 5589 5588 5589 5587 5585 5580 5578 5584 5583 5604 5592 5583 5582 5575 5571 5571 5568
5448 5448 5473 5478 5492 5504 5512 5520 5526 5532 5539 5544 5547 5550 5555 5557 5560 5562 5566 5567 5567 5569 5571 5573 5574 5574 5574 5576 5577 5577 5576 5572 5569 5568 5562 5577 5562 5573 5576 5567 5560 5558 5552 5547 5544
5427 5443 5465 5475 5484 5494 5501 5507 5515 5519 5525 5530 5536 5539 5542 5545 5549 5549 5552 5556 5557 5558 5560 5561 5562 5563 5563 5565 5566 5567 5564 5565 5559 5555 5548 5547 5555 5545 5548 5550 5547 5540 5532 5528 5521
5419 5444 5460 5465 5477 5484 5489 5498 5506 5508 5509 5514 5520 5526 5529 5532 5535 5538 5540 5542 5545 5547 5549 5551 5551 5551 5549 5551 5554 5557 5555 5552 5543 5540 5535 5530 5534 5532 5524 5522 5521 5515 5512 5506 5502
Wind_Speed
42 42 40 38 39 34 34 37 37 34 31 30 27 27 25 26 26 21 21 21 19 20 18 20 21 23 24 25 24 24 21 16 17 20 26 28 29 30 30 30 32 29 26 22 20
52 46 46 43 43 42 39 40 37 35 32 32 30 27 25 24 26 21 21 21 18 19 19 17 17 18 20 23 22 22 19 17 20 23 25 28 25 26 25 26 31 34 29 19 21
57 52 45 49 45 45 45 44 39 36 36 33 32 29 27 23 26 23 21 21 20 19 18 18 15 15 18 20 19 17 14 19 20 22 24 25 16 18 19 20 27 31 29 18 16
55 57 54 52 47 45 45 48 43 39 38 35 33 31 28 24 26 24 23 20 22 20 19 18 15 15 17 18 20 14 14 17 18 19 19 19 14 12 10 15 21 25 24 21 16
58 57 56 54 50 47 46 48 49 44 40 35 33 32 29 24 31 24 24 24 22 22 21 19 19 18 18 19 20 17 20 20 20 22 22 23 20 18 17 18 22 24 21 16 13
59 59 58 54 52 52 49 49 50 49 46 39 34 33 29 23 34 27 25 26 22 22 23 22 22 19 18 22 23 22 21 21 19 21 25 27 25 25 19 23 25 28 24 18 14
69 65 61 56 54 52 51 50 51 57 48 42 36 34 27 26 34 28 28 27 27 25 25 25 24 23 22 26 27 25 24 21 22 27 29 33 28 25 22 29 30 28 24 24 20
69 66 63 61 57 56 54 53 54 59 55 46 39 35 23 30 36 35 28 30 31 28 27 29 28 27 26 30 28 29 27 25 25 33 31 34 26 23 31 33 28 27 28 29 26
72 71 65 62 60 58 59 58 57 60 59 46 42 38 27 30 36 36 32 33 33 31 31 30 28 28 28 29 29 28 30 30 28 35 33 36 32 23 32 31 28 27 26 27 33
77 72 67 65 64 63 64 62 62 63 55 45 43 42 37 32 35 38 37 35 35 35 34 31 33 31 28 29 28 34 33 31 25 31 39 35 32 29 27 29 31 29 30 29 30
72 70 68 70 69 68 65 66 66 61 53 44 47 45 43 37 36 38 39 38 38 39 37 37 37 28 28 33 35 33 34 32 26 26 40 33 33 31 28 27 31 33 36 35 33
62 62 62 61 63 64 66 68 67 57 52 49 50 50 43 41 44 40 38 41 40 40 41 42 40 26 34 39 39 38 36 34 30 30 38 33 35 32 31 33 35 41 45 46 45
61 62 58 58 60 60 63 65 60 55 55 50 51 50 43 46 47 38 44 39 40 43 44 45 41 34 37 36 38 38 41 38 41 38 38 40 39 37 39 41 44 47 48 48 48
61 60 64 62 61 58 56 53 54 55 55 54 44 48 46 48 50 39 41 43 42 41 41 47 42 38 37 39 40 44 41 43 44 45 44 44 50 47 46 49 49 47 49 50 52
61 59 57 60 63 56 53 53 54 59 57 53 52 45 47 44 46 46 44 47 43 38 44 46 42 41 44 40 42 45 46 48 50 50 51 53 55 50 51 51 49 50 50 50 54
70 60 57 64 65 59 59 60 63 62 56 53 53 51 45 42 37 39 41 44 41 41 42 44 43 47 48 47 46 49 52 53 55 57 59 60 60 55 53 53 53 52 49 47 50
75 72 66 61 67 63 61 69 70 70 56 54 55 53 52 49 47 45 44 44 43 46 47 46 47 49 52 53 53 54 54 54 56 57 52 52 56 54 56 55 55 54 54 51 45
74 72 71 58 58 67 64 71 80 62 61 59 58 56 55 58 52 49 49 50 50 49 51 52 54 50 51 52 49 50 53 55 56 57 56 56 58 57 56 58 58 59 56 55 55
75 72 75 76 64 54 60 72 71 67 64 64 60 58 54 57 57 53 53 53 55 58 55 55 54 55 54 52 52 54 55 57 58 57 59 59 59 58 59 60 61 60 62 62 62
77 75 75 79 81 72 62 69 59 62 67 69 71 63 58 53 57 56 55 56 55 54 54 51 53 53 54 52 53 52 51 54 56 59 62 61 60 62 60 62 62 62 62 62 63
74 78 73 70 68 72 72 66 54 55 56 63 61 57 49 42 40 44 48 49 51 51 51 49 48 51 49 48 47 49 51 55 56 57 60 62 58 58 62 62 62 59 58 60 64
80 74 73 77 73 66 74 56 46 44 45 43 38 43 41 34 30 29 32 29 39 44 46 45 45 45 43 45 45 47 50 53 55 56 57 59 55 56 64 63 62 62 66 70 71
79 82 92 80 75 82 76 66 50 44 40 38 37 33 34 31 33 32 30 30 29 32 34 36 41 44 45 44 45 46 48 51 53 54 57 59 58 55 62 63 63 67 69 70 70
83 94 81 79 75 69 73 71 59 54 41 32 32 33 28 29 35 33 35 34 33 37 40 43 45 46 47 45 47 50 51 53 56 60 61 63 62 56 61 66 67 70 72 72 74
92 91 88 62 61 67 62 61 53 54 51 51 34 39 31 35 39 41 40 40 41 42 45 45 45 46 49 51 51 52 53 54 58 57 63 58 66 61 61 66 70 73 76 78 80
101 85 76 59 65 66 66 67 66 66 68 55 39 46 41 38 46 54 44 43 45 45 45 46 48 50 51 51 52 52 51 48 55 58 64 67 63 66 69 69 72 76 81 82 82
98 87 88 83 71 65 57 59 57 50 42 35 36 47 51 49 47 49 46 48 48 46 46 48 50 52 54 53 52 52 51 52 58 60 64 66 66 68 73 75 77 79 78 79 73
Wind_Direction
271 275 275 279 291 287 293 300 306 311 297 283 275 272 271 270 266 253 247 247 248 253 252 251 250 251 255 259 251 243 239 228 238 236 236 241 253 263 270 282 289 295 313 299 282
259 266 272 274 286 288 289 291 297 302 305 286 278 270 267 265 262 248 244 247 242 243 244 246 248 248 250 250 247 244 241 233 233 233 239 250 255 269 283 287 283 284 290 289 271
265 265 269 270 275 277 280 288 290 294 297 294 279 274 269 261 260 248 243 242 245 239 238 240 240 240 242 242 244 235 224 228 232 240 247 262 275 283 282 274 282 288 293 286 273
258 262 266 269 271 273 275 284 291 285 290 297 283 273 268 260 259 251 244 242 245 239 234 241 233 234 238 241 237 223 222 225 227 236 253 266 273 276 280 266 275 287 299 299 298
259 260 262 264 268 269 272 277 284 286 282 287 282 274 269 261 256 249 246 242 239 244 236 234 241 234 239 239 244 233 230 228 230 243 245 250 257 247 244 255 259 261 273 282 281
258 262 261 261 262 266 269 271 275 281 282 279 280 273 268 262 253 252 243 245 240 237 241 237 239 242 242 247 247 244 241 243 244 247 252 255 250 254 250 248 253 257 264 262 252
261 262 259 259 262 265 267 268 272 279 281 272 276 269 266 257 256 253 244 242 243 238 243 247 246 243 240 249 254 252 248 248 253 253 252 256 255 263 257 253 246 262 268 268 262
257 257 258 261 260 261 262 264 268 270 278 268 273 269 263 252 255 253 246 244 243 239 240 247 248 250 248 248 252 255 256 247 247 251 254 255 260 256 248 258 265 261 267 272 267
256 258 253 255 255 258 261 261 264 268 273 265 268 271 255 249 250 252 250 243 246 246 244 250 254 251 253 252 255 260 260 254 243 257 259 262 265 248 260 269 274 271 271 277 281
254 254 252 255 256 256 260 261 261 267 266 262 270 270 267 249 248 252 252 247 245 246 250 252 256 256 261 261 257 256 260 263 258 250 262 260 270 269 263 272 276 279 283 275 275
251 252 252 254 254 257 257 260 261 262 265 258 264 264 267 256 249 245 250 252 251 250 251 254 259 267 265 264 259 260 265 265 264 250 261 267 267 271 274 274 278 277 277 272 264
249 249 253 253 254 256 255 258 263 258 261 255 260 262 267 260 251 253 250 250 251 256 259 262 264 257 262 265 266 263 265 266 260 258 264 266 268 274 280 279 275 279 281 280 276
240 245 248 251 253 253 259 258 257 254 260 253 257 263 264 258 256 245 253 251 254 254 255 260 265 255 258 264 270 270 269 270 270 264 267 271 268 270 271 270 274 279 279 280 279
242 245 249 251 254 253 257 258 254 256 258 258 257 257 256 253 255 256 252 258 251 254 253 256 255 262 261 264 270 272 272 272 270 271 268 265 271 275 279 275 274 269 271 271 271
234 243 246 253 252 253 254 252 251 254 257 262 261 252 248 252 256 254 250 255 260 259 252 253 258 258 261 266 267 274 269 265 267 270 273 275 275 278 280 279 273 269 269 267 266
234 243 246 245 250 252 251 246 245 245 247 253 256 258 250 250 255 253 251 248 251 254 257 258 258 259 262 266 267 268 269 268 268 272 274 277 277 279 280 279 280 279 272 262 260
241 246 247 247 249 249 255 254 242 245 251 249 251 253 256 254 251 249 253 251 253 256 258 259 258 263 266 268 270 274 274 274 274 273 275 274 271 276 276 275 275 272 271 268 259
239 240 244 242 243 241 248 252 246 251 249 250 250 247 254 260 258 253 255 257 261 262 262 262 263 264 266 270 271 271 272 272 273 271 271 270 270 271 270 271 272 272 271 269 267
237 233 238 241 245 240 240 249 250 248 252 252 253 248 249 256 264 263 261 261 263 266 267 269 268 271 269 269 271 273 268 268 270 270 266 265 266 269 270 270 272 270 269 269 268
235 234 232 242 243 249 248 249 247 248 249 253 253 252 256 255 265 264 265 263 261 264 267 269 268 271 274 276 274 272 269 262 261 259 263 265 265 267 270 271 271 271 271 272 272
226 233 230 236 233 244 249 246 251 250 249 247 252 259 257 253 255 258 260 262 262 263 264 267 269 272 272 271 272 271 267 261 258 256 258 262 269 273 270 269 268 268 270 269 268
224 226 227 234 227 234 248 244 248 247 244 245 245 249 241 248 241 245 249 257 262 264 266 267 267 267 267 267 265 262 260 258 259 261 262 262 272 272 271 272 274 272 269 268 270
219 225 228 226 231 238 238 243 253 244 235 229 241 242 237 247 258 262 268 267 268 262 262 264 267 264 263 257 256 256 259 261 261 262 261 261 271 268 271 271 271 272 276 281 283
218 219 218 217 229 234 250 245 253 238 230 244 244 255 260 258 261 275 273 272 271 258 253 257 254 256 256 256 255 254 255 257 259 261 264 269 274 266 273 279 281 281 280 282 284
214 221 215 212 235 225 236 246 231 232 246 250 244 251 263 270 263 262 262 263 264 251 247 251 253 253 254 254 255 256 259 260 263 272 275 278 279 285 283 282 283 284 285 286 286
215 216 219 227 224 234 233 231 238 241 246 250 252 248 277 273 264 258 261 259 257 251 253 255 252 253 254 256 256 257 262 270 276 273 273 275 279 280 281 283 283 283 282 283 285
207 218 223 230 236 236 246 243 243 245 249 256 256 256 261 261 256 257 259 254 251 250 251 251 253 254 255 252 256 262 271 271 271 273 276 278 282 283 282 283 284 284 286 288 292